Regional Weather Roundup
Issued by NWS Sterling, VA

Home | Current Version | Previous Version | Text Only | Print | Product List | Glossary Off
Versions: 1 2 3 4 5 6 7 8 9 10 11 12 13 14 15 16 17 18 19 20 21 22 23 24 25 26 27 28 29 30 31 32 33 34 35 36 37 38 39 40 41 42 43 44 45 46 47 48 49 50

000
ASUS41 KLWX 300310
RWRLWX

REGIONAL WEATHER ROUNDUP
NATIONAL WEATHER SERVICE BALTIMORE MD/WASHINGTON DC
1100 PM EDT SAT AUG 29 2015

Note: "FAIR" indicates few or no clouds below 12,000 feet
with no significant weather and/or obstructions to visibility.
 TC=TEMPERATURE CELSIUS

 * =Non NWS site. Station does not report precipitation (e.g. rain,
    snow, etc.), thunder, or fog.

DCZ001-MDZ009-015-VAZ040>042-051-053>054-300400-
WASHINGTON METRO

CITY           SKY/WX    TMP DP  RH WIND       PRES   REMARKS
WASHINGTON NAT MOCLDY    75  66  73 S10       30.13R
DULLES         MOCLDY    75  64  68 S7        30.12S
ANDREWS AFB    MOCLDY    72  64  75 S8        30.13R
FT BELVOIR     PTCLDY    73  65  76 SE6       30.13R
QUANTICO       PTCLDY    77  65  66 S15       30.14S
COLLEGE PARK*  MOCLDY    77  63  61 S5        30.13R
LEESBURG*      PTCLDY    75  68  78 S8        30.13S
MANASSAS*      PTCLDY    72  66  83 CALM      30.13R
GAITHERSBURG*  CLEAR     73  63  68 SE7       30.17S

$$

MDZ006>007-011-014-300400-
BALTIMORE METRO

CITY           SKY/WX    TMP DP  RH WIND       PRES   REMARKS
BWI AIRPORT    MOCLDY    73  63  70 S5        30.12S
MD SCIENCE CTR   N/A     76  62  62 MISG      30.13S
MARTIN STATE   PTCLDY    77  68  73 S5        30.13F
ANNAPOLIS      MOCLDY    75  63  66 S6        30.13R
FORT MEADE*    MOCLDY    66  63  88 CALM      30.15S

$$

MDZ012-015-019>023-300400-
MARYLAND EASTERN SHORE

CITY           SKY/WX    TMP DP  RH WIND       PRES   REMARKS
OCEAN CITY     CLOUDY    75  61  61 CALM      30.15S
SALISBURY      CLOUDY    68  63  84 CALM      30.15R
BAY BRIDGE AP*   N/A     77  64  65 S7        30.13S
CAMBRIDGE*     MOCLDY    72  64  78 CALM      30.14S

$$

MDZ017>025-300400-
SOUTHERN MARYLAND

CITY           SKY/WX    TMP DP  RH WIND       PRES   REMARKS
PATUXENT RIVER PTCLDY    72  63  73 S5        30.14S
ST INIGOES     PTCLDY    74  65  73 S6        30.14S
LEONARDTOWN*   PTCLDY    72  63  73 CALM      30.16S

$$

MDZ003>005-300400-
NORTH CENTRAL MARYLAND

CITY           SKY/WX    TMP DP  RH WIND       PRES   REMARKS
FREDERICK*     CLEAR     73  64  73 CALM      30.15R
HAGERSTOWN APT CLEAR     76  63  64 SE6       30.11S
WESTMINSTER*   CLEAR     73  66  78 S5        30.14S

$$

MDZ501>502-300400-
WESTERN MARYLAND

CITY           SKY/WX    TMP DP  RH WIND       PRES   REMARKS
OAKLAND*       CLEAR     64  55  72 SW5       30.23S
CUMBERLAND*    CLEAR     72  63  73 N5        30.15S

$$

VAZ025>031-300400-
SHENANDOAH VALLEY

CITY           SKY/WX    TMP DP  RH WIND       PRES   REMARKS
WINCHESTER*    PTCLDY    73  63  68 S3        30.11S
FRONT ROYAL*   FAIR      70  63  78 CALM      30.12S
LURAY*         FAIR      68  61  77 S3        30.14S
NEW MARKET*    FAIR      68  63  85 CALM      30.13R
STAUNTON*      PTCLDY    73  61  67 S5        30.18S
WAYNESBORO*    FAIR      70  61  74 CALM      30.18S

$$

WVZ021-048>050-054>055-300400-
EASTERN WEST VIRGINIA PANHANDLE

CITY           SKY/WX    TMP DP  RH WIND       PRES   REMARKS
MARTINSBURG    PTCLDY    67  64  90 CALM      30.11S
PETERSBURG*    CLEAR     67  63  87 CALM      30.14S

$$

VAZ036>039-050-300400-
CENTRAL FOOTHILLS

CITY           SKY/WX    TMP DP  RH WIND       PRES   REMARKS
CHARLOTTESVILL CLEAR     71  63  75 CALM      30.14R
CULPEPER*      CLOUDY    71  64  80 CALM      30.14R
ORANGE*        PTCLDY    70  64  83 S5        30.15S
GORDONSVILLE*  FAIR      67  65  94 CALM      30.14R
WARRENTON*     MOCLDY    74  67  76 S3        30.13R

$$

VAZ055>057-300400-
NORTH AND CENTRAL PIEDMONT

CITY           SKY/WX    TMP DP  RH WIND       PRES   REMARKS
FREDERICKSBRG* PTCLDY    74  66  75 S5        30.13S
STAFFORD*      FAIR      71  64  78 CALM      30.17S

$$

NCZ024-NYZ072-PAZ021-071-VAZ022-071-300400-
OTHER REGIONAL OBSERVATIONS

CITY           SKY/WX    TMP DP  RH WIND       PRES   REMARKS
NEW YORK CITY  CLEAR     76  59  55 VRB5      30.13S
PHILADELPHIA   MOCLDY    75  62  64 SW8       30.13S
PITTSBURGH     MOCLDY    75  63  66 CALM      30.11S
ROANOKE        MOCLDY    70  64  81 W3        30.19S
RICHMOND       MOCLDY    71  61  70 CALM      30.15S
RALEIGH        CLOUDY    71  63  75 CALM      30.16R

$$

ANZ530>537-300400-
MARINE OBSERVATIONS

STATION/POSITION TIME  TEMP    WIND        PRES
                       AIR SEA DIR/SP/G
                 (UTC) (F)     (DEG/KT/KT) (MB)
THOMAS PT LIGHT  NOT AVBL

$$



USA.gov is the U.S. government's official web portal to all federal, state and local government web resources and services.